Other Public Products
Issued by NWS Grand Forks, ND

Home | Current Version | Previous Version | Graphics & Text | Print | Product List | Glossary Off
Versions: 1 2 3 4 5 6 7 8 9 10 11 12 13 14 15 16 17 18 19 20 21 22 23 24 25 26 27 28 29 30 31 32 33 34 35 36 37 38 39 40 41 42 43 44 45 46 47 48 49 50

000
FPUS83 KFGF 250031
OPUFGF
PRAIRIE TO PINES WEATHER ROUNDUP
NATIONAL WEATHER SERVICE EASTERN NORTH DAKOTA/GRAND FORKS ND
600 PM CST FRI FEB 24 2017

 **SATELLITE DATA USED TO AUGMENT SKY COVER AT AUTOMATED STATIONS**
 *****  WEATHER ACROSS EASTERN NORTH DAKOTA  *****

CITY           SKY/WX    TMP DP  RH WIND       PRES   REMARKS
GRAND FORKS    FAIR      19   8  62 N16       30.13R WCI   4
6HR MIN TEMP:  19; 6HR MAX TEMP:  23; 6HR PCP: TRACE;

GRAND FORKS AF CLEAR     18  11  74 NE10      30.12R WCI   7
GRAND CITY NWS NOT AVBL
BUXTON         NOT AVBL
DEVILS LAKE    FAIR      20  13  74 N8        30.11S WCI  10
6HR MIN TEMP:  19; 6HR MAX TEMP:  21; 6HR PCP: TRACE;

FARGO          FAIR      21  13  71 N20       30.09R WCI   6
6HR MIN TEMP:  22; 6HR MAX TEMP:  26;

WAHPETON ARPT  MOCLDY    21  14  73 N24       30.07R WCI   4
$$

 *****  WEATHER ACROSS CENTRAL AND WESTERN NORTH DAKOTA  *****

CITY           SKY/WX    TMP DP  RH WIND       PRES   REMARKS
JAMESTOWN      FAIR      22  16  78 N14       30.08S WCI   9
6HR MIN TEMP:  22; 6HR MAX TEMP:  25;

BISMARCK       MOCLDY    28  14  55 NW9       30.12S WCI  19
6HR MIN TEMP:  28; 6HR MAX TEMP:  32;

MINOT          MOCLDY    27  17  66 CALM      30.08F
6HR MIN TEMP:  26; 6HR MAX TEMP:  32; 6HR PCP: TRACE;

MINOT AFB      MOCLDY    23  16  75 SE3       30.08S
6HR MIN TEMP:  23; 6HR MAX TEMP:  26;

GARRISON         N/A     24  14  65 W6        30.09S WCI  17
6HR MIN TEMP:  24; 6HR MAX TEMP:  29;

WILLISTON      CLOUDY    27  15  61 SW8       30.09S WCI  19
6HR MIN TEMP:  25; 6HR MAX TEMP:  28;

DICKINSON      CLOUDY    23  14  68 SW6       30.05S WCI  16
6HR MIN TEMP:  21; 6HR MAX TEMP:  25;

HETTINGER      MOCLDY    27  13  55 CALM      30.07S
6HR MIN TEMP:  23; 6HR MAX TEMP:  30;

$$

 *****  OTHER OBSERVATIONS NORTHEAST NORTH DAKOTA  *****

CITY           SKY/WX    TMP DP  RH WIND       PRES   REMARKS
WALHALLA       NOT AVBL
LANGDON        NOT AVBL
CAVALIER         N/A     16  12  86 N5        30.14R WCI   9
GRAFTON        FAIR      18  12  79 N7        30.15S WCI   8
CANDO          NOT AVBL
FORT TOTTEN      N/A     21  12  67 N5        29.95S WCI  15
ROLLA          FAIR      16  10  79 N7        30.08S WCI   6
RUGBY            N/A     18  16  93 NW3       30.10S
 ***** THE ABOVE OBSERVATIONS ARE NON NWS ARE NOT QUALITY
        CONTROLLED AND MAY MIS-REPORT RAIN FOR SNOW...
$$

 *****  OTHER OBSERVATIONS SOUTHEAST NORTH DAKOTA *****

CITY           SKY/WX    TMP DP  RH WIND       PRES   REMARKS
COOPERSTOWN    FAIR      19  14  79 NW15      30.10R WCI   5
VALLEY CITY    CLOUDY    21  18  86 N20G25    30.10S WCI   6
OAKES          NOT AVBL
GWINNER        FAIR      23  18  80 N13       30.08R WCI  11
SHEYENNE NWR     N/A     23  13  65 N9        29.95S WCI  13
BUFFALO        NOT AVBL
WYNDMERE         N/A     21  16  79 N16         N/A  WCI   7
 ***** THE ABOVE OBSERVATIONS ARE NON NWS ARE NOT QUALITY
       CONTROLLED AND MAY MIS-REPORT RAIN FOR SNOW...
$$

  *****  WEATHER ACROSS NORTHERN MINNESOTA  *****

CITY           SKY/WX    TMP DP  RH WIND       PRES   REMARKS
FLAG ISLAND    FAIR      16   3  57 NW12      30.02S WCI   3
WARROAD        FAIR      16   7  67 NW14G20   30.04R WCI   1
ROSEAU         FAIR      16   7  67 NW12      30.05S WCI   3
HALLOCK        FAIR      16   9  73 N10       30.12S WCI   3
THF RVR FALLS  FAIR      16  10  77 NW18      30.07S WCI   0
6HR MIN TEMP:  16; 6HR MAX TEMP:  22;

HALSTAD          N/A     20  10  67 N18         N/A  WCI   4
FOSSTON        FAIR      16   9  73 NW17      30.03R WCI   0
BAUDETTE       FAIR      15   3  59 NW8       29.99S WCI   4
6HR MIN TEMP:  13; 6HR MAX TEMP:  17;

WASKISH        FAIR      16   7  67 N6        29.99R WCI   7
CROOKSTON      FAIR      18  10  73 N15       30.11R WCI   3
$$
  *****  WEATHER ACROSS CENTRAL AND WEST MINNESOTA  *****

CITY           SKY/WX    TMP DP  RH WIND       PRES   REMARKS
BEMIDJI        FAIR      17   5  60 NW14      29.97R WCI   3
PARK RAPIDS    FAIR      20   6  55 N18       29.94R WCI   5
6HR MIN TEMP:  19; 6HR MAX TEMP:  24;

WADENA         FAIR      19   9  63 N14       29.95R WCI   6
DETROIT LAKES  MOCLDY    19  14  79 NW17G24   30.01R WCI   4
MOORHEAD       FAIR      19  12  73 N20       30.09R WCI   4
FERGUS FALLS   CLOUDY    19  12  73 N15G26    30.07R WCI   5
ELBOW LAKE     MOCLDY    20  14  77 N18G28    30.01R WCI   5
MORRIS MN      CLOUDY    23  16  74 N25G32    29.99R WCI   7
STAPLES        FAIR      21   9  58 NW15      29.93S WCI   8
WHEATON        MOCLDY    21  14  73 NW22G29   30.07R WCI   5
$$
  *****  WEATHER ELSEWHERE ACROSS MINNESOTA  *****

CITY           SKY/WX    TMP DP  RH WIND       PRES   REMARKS
DULUTH         FAIR      19   9  65 N9        29.84S WCI   8
6HR MIN TEMP:  17; 6HR MAX TEMP:  21;

INTRNTL FALLS  FAIR      17   4  56 N10       29.96R WCI   5
6HR MIN TEMP:  15; 6HR MAX TEMP:  20;

ELY            FAIR      16   1  53 N3        29.87S
CLOQUET        FAIR      19  10  68 N10       29.86S WCI   8
BRAINERD       FAIR      20   7  57 N15       29.92R WCI   6
6HR MIN TEMP:  20; 6HR MAX TEMP:  22;

HIBBING        FAIR      17   4  56 N17       29.88S WCI   1
6HR MIN TEMP:  15; 6HR MAX TEMP:  20;

ALEXANDRIA     FAIR      23  10  57 N15G29    29.95R WCI  10
6HR MIN TEMP:  23; 6HR MAX TEMP:  27;

SAINT CLOUD    FAIR      23  10  57 N17G26    29.89R WCI   9
6HR MIN TEMP:  23; 6HR MAX TEMP:  27;

MINNEAPOLIS    MOCLDY    25  11  55 N21G28    29.85R WCI  11
6HR MIN TEMP:  25; 6HR MAX TEMP:  27;

$$

  *****  WEATHER ACROSS SOUTH DAKOTA  *****

CITY           SKY/WX    TMP DP  RH WIND       PRES   REMARKS
SIOUX FALLS    CLOUDY    26  17  68 N16       29.97R WCI  14
6HR MIN TEMP:  24; 6HR MAX TEMP:  28;

BROOKINGS      MOCLDY    23  16  74 N18G24    29.97R WCI   9
WATERTOWN      FAIR      21  13  71 N24G35    29.99R WCI   4
6HR MIN TEMP:  21; 6HR MAX TEMP:  28;

HURON          FAIR      29  15  56 N24G30    30.06R WCI  15
6HR MIN TEMP:  29; 6HR MAX TEMP:  34;

SISSETON         N/A     24  16  71 N18G29    30.04R WCI  10
ABERDEEN       FAIR      24  13  62 N18G26    30.10R WCI  10
6HR MIN TEMP:  24; 6HR MAX TEMP:  31;

MITCHELL       FAIR      30  16  56 N21       30.05R WCI  17
PIERRE         FAIR      28  12  51 N10       30.10R WCI  19
6HR MIN TEMP:  28; 6HR MAX TEMP:  32;

MOBRIDGE       FAIR      30  14  51 N7        30.09S WCI  23
RAPID CITY     FAIR      20  14  77 S6        30.06R WCI  12
6HR MIN TEMP:  20; 6HR MAX TEMP:  23;

$$

  *****  SOME WEATHER IN NEARBY STATES *****

CITY           SKY/WX    TMP DP  RH WIND       PRES   REMARKS
GLASGOW MT     LGT SNOW  31  24  75 SW6       30.04S
6HR MIN TEMP:  28; 6HR MAX TEMP:  31; 6HR PCP: TRACE;

GREAT FALLS MT FAIR      30  11  45 N9        30.01S WCI  22
6HR MIN TEMP:  27; 6HR MAX TEMP:  33; 6HR PCP: TRACE;

CHEYENNE WY    FAIR      16   8  71 SW7       29.94R WCI   6
6HR MIN TEMP:  16; 6HR MAX TEMP:  20; 6HR PCP: TRACE;

SCOTTSBLUFF NE FAIR      24  16  71 CALM      30.05R
6HR MIN TEMP:  22; 6HR MAX TEMP:  26; 6HR PCP: TRACE;

OMAHA NE       MOCLDY    26  16  65 NW20      29.96R WCI  12
6HR MIN TEMP:  25; 6HR MAX TEMP:  26; 6HR PCP:  0.01;

DES MOINES IA  LGT SNOW  25  21  85 N20G30    29.81R VSB 3/4 WCI  11
6HR MIN TEMP:  25; 6HR MAX TEMP:  32; 6HR PCP:  0.04;

DAVENPORT IA   LGT SNOW  32  31  96 N13       29.63R FOG     WCI  22
6HR MIN TEMP:  33; 6HR MAX TEMP:  37; 6HR PCP:  0.01;

CHICAGO IL     DRIZZLE   39  36  89 NW10      29.53S FOG
6HR MIN TEMP:  39; 6HR MAX TEMP:  40; 6HR PCP: TRACE;

EAU CLAIRE WI  LGT SNOW  21  17  84 N14       29.76R FOG     WCI   8
6HR MIN TEMP:  21; 6HR MAX TEMP:  26; 6HR PCP:  0.01;

LA CROSSE WI   LGT SNOW  27  22  81 NW16      29.72R WCI  15
6HR MIN TEMP:  27; 6HR MAX TEMP:  32; 6HR PCP:  0.04;

$$

  *****  SOME NATIONAL WEATHER *****

CITY           SKY/WX    TMP DP  RH WIND       PRES   REMARKS
LA GUARDIA NY  FAIR      62  53  72 S13       29.86R
6HR MIN TEMP:  62; 6HR MAX TEMP:  70;



USA.gov is the U.S. government's official web portal to all federal, state and local government web resources and services.